Showing default

CAPELLA-17 (ACADIA), 64583

Orbit data source: Space-Track

CAPELLA-17 (ACADIA), 64583 is a payload satellite owned by Capella Space (US) in SSO that was launched on Mon, 23 Jun 2025 UTC via an FALCON 9 launch vehicle from the Air Force Western Test Range (AFWTR). Payload-class satellites include a variety of spacecraft equipped with specific instruments for various scientific and technological missions. These include communications satellites like Starlink; space stations such as the ISS; scientific satellites like the Hubble; Earth observation satellites from companies like Planet Labs, Umbra, and HawkEye 360; GPS; miniature CubeSats for education and research; and military/defense satellites.

Loading next visibility...
Identifier
64583, 2025-135BH
Orbit
SSO
Country
Flag of USUS
Related business
Manufacturer
Capella Space
Mission
Operational Commercial Radar Imaging
Bus & Motor
ACADIA, Unknown motor
Mass
180 kg wet, ~150 kg dry
Launch date (UTC)
2025-06-23 (7 months ago)
Launch vehicle
FALCON 9
Launch site
Air Force Western Test Range (AFWTR)
Object type
Payload
Rocket body
Debris
Shape & HBR
Box + 2 Pan + 1 Dish + 1 Rod, 1.8 m
Radar Cross Section
0.463 m², Large (>1 m²)

Expand to show TLE details & history
Last TLE update: 12 hours ago

TLE from 12 hours ago
0 CAPELLA-17 (ACADIA)
1 64583U 25135BH  26035.81698733  .00010612  00000-0  10898-2 0  9991
2 64583  97.7570 151.5752 0005727  83.3485 276.8384 14.90548772 34126
Epoch: 2026-02-04T19:36Z
TLE epoch observation values (Epoch: 2026-02-04T19:36:27.705Z)
Latitude
-0.00009°
Longitude
82.48164°
Altitude
598.79 km
Speed
7.561 km/s
True Right ascension
10h 06m 18s
True Declination
0° 00' 00"
Sunlit
Object was in full shadow at epoch
Visualization orbit readout
Latitude
Unknown
Longitude
Unknown
Altitude
Unknown
Speed
Unknown
Apparent Right ascension
Unknown
Apparent Declination
Unknown
Sunlit
N/A
Visualization observer readout
Local Sidereal Time
09:13:34
Azimuth
Unknown
Elevation
Unknown
Doppler factor
Unknown
Orbital elements
Apogee altitude
597.236 km
Perigee altitude
589.251 km
Semi-major axis
6,971.381 km
Eccentricity
0.00057
Inclination
97.757°
RAAN
151.5752°
Arg. of periapsis
83.3485°
True anomaly
276.77323°
Mean anomaly
276.8384°
Eccentric anomaly
276.80582°
Mean motion
3.72876 °/min
Orbital period
96.55 mins
BSTAR
0.0010898
Loading maneuver chart data...
Computing Atmospheric mass density...
Loading historical data...
Loading historical data...
Loading historical data...
Loading historical data...
Loading historical data...
Loading historical data...
Loading historical data...

Documentation

Showing up to 5 results
|